User: anonymous   Login
Location: Unspecified
(0.0000°N, 0.0000°E)
Time: 01:48:53
(UTC+00:00)
Language:

TBA - TO BE ASSIGNED - Orbit

View from above orbital plane
View from above orbital plane
View from above satellite
View from above satellite

Ground track
Ground track

The orbit is defined by the following mean orbital elements,

1 67910U          26145.53760322 +.00000000 +00000-0 +54882-3 0 00002
2 67910  43.0018 171.3879 0001593 270.0970  89.9699 15.27592982    00
Epoch (UTC): 25 May 2026 12:54:08
Eccentricity: 0.0001593
inclination: 43.0018°
perigee height: 482 km
apogee height: 484 km
right ascension of ascending node: 171.3879°
argument of perigee: 270.0970°
revolutions per day: 15.27592982
mean anomaly at epoch: 89.9699°

The dashed part of the orbit path shows where the satellite is in the earth's shadow,  

DLR